Location: Erdweis
(48.5167°N, 15.3500°E)
Time: 07:04:22
(UTC+00:00)

Cosmos 1674 - Pass Details

Date: 18 September 2020
Orbit: 494 x 517 km, 82.5° (Epoch: 23 October)

Event Time Altitude Azimuth Distance (km) Brightness Sun altitude
Rises 19:02:40 0° 350° (N) 2,654 6.8 -19.7°
Reaches altitude 10° 19:04:48 10° 351° (N) 1,762 5.9 -20.0°
Maximum altitude 19:08:41 88° 77° (ENE) 526 2.6 -20.6°
Enters shadow 19:09:18 62° 167° (SSE) 590 2.7 -20.7°
